CW6391 Weather Reports


Display with metric or nautical units.
time (UTC)temp
F
wind
direction
speed
MPH
gust
MPH
rain 1hr
in
rain 24hr
in
rain mn
in
humidity
%
barometer
mb
20260902030107 53 196 0.0 3.0 0.00 0.00 0.00 86 1020.5
20260902025611 53 45 1.0 3.0 0.00 0.00 0.00 86 1020.5
20260902025111 53 80 2.0 3.0 0.00 0.00 0.00 86 1020.5
20260902024610 53 284 0.0 1.0 0.00 0.00 0.00 85 1020.5
20260902024107 53 157 1.0 1.0 0.00 0.00 0.00 86 1020.5
20260902023610 53 121 0.0 1.0 0.00 0.00 0.00 85 1020.9
20260902023107 53 332 0.0 1.0 0.00 0.00 0.00 85 1020.9
20260902022607 53 49 0.0 4.0 0.00 0.00 0.00 85 1020.9
20260902022113 54 73 3.0 4.0 0.00 0.00 0.00 85 1020.5
20260902021610 54 50 2.0 3.0 0.00 0.00 0.00 84 1020.5
20260902021110 54 159 0.0 2.0 0.00 0.00 0.00 84 1020.5
20260902020607 54 123 1.0 2.0 0.00 0.00 0.00 84 1020.5
20260902020107 54 159 0.0 2.0 0.00 0.00 0.00 84 1020.5
20260902015607 54 167 1.0 2.0 0.00 0.00 0.00 83 1020.9
20260902015107 54 181 1.0 3.0 0.00 0.00 0.00 83 1020.9
20260902014613 55 166 2.0 3.0 0.00 0.00 0.00 83 1020.9
20260902014114 55 161 0.0 3.0 0.00 0.00 0.00 83 1020.9
20260902013607 55 172 1.0 2.0 0.00 0.00 0.00 83 1020.9
20260902013110 55 164 1.0 2.0 0.00 0.00 0.00 83 1020.9
20260902012607 55 119 0.0 2.0 0.00 0.00 0.00 83 1020.9
20260902012107 55 132 1.0 3.0 0.00 0.00 0.00 83 1020.9
20260902011607 55 158 1.0 3.0 0.00 0.00 0.00 83 1020.9
20260902011110 55 182 0.0 2.0 0.00 0.00 0.00 83 1020.9
20260902010607 55 138 1.0 2.0 0.00 0.00 0.00 83 1020.9
20260902010107 55 187 1.0 2.0 0.00 0.00 0.00 84 1020.9
20260902005607 55 344 0.0 1.0 0.00 0.00 0.00 83 1020.9
20260902005108 55 197 0.0 1.0 0.00 0.00 0.00 83 1020.9
20260902004607 55 194 0.0 1.0 0.00 0.00 0.00 83 1020.9
20260902004108 55 295 0.0 2.0 0.00 0.00 0.00 82 1020.9
20260902003607 56 263 0.0 1.0 0.00 0.00 0.00 82 1020.9
20260902003110 56 239 0.0 2.0 0.00 0.00 0.00 82 1021.3
20260902002610 56 141 0.0 2.0 0.00 0.00 0.00 82 1020.9
20260902002110 56 160 0.0 1.0 0.00 0.00 0.00 82 1020.9
20260902001607 56 154 0.0 1.0 0.00 0.00 0.00 81 1020.9
20260902001107 56 354 0.0 2.0 0.00 0.00 0.00 81 1020.9
20260902000610 56 123 0.0 2.0 0.00 0.00 0.00 81 1020.9
20260902000107 56 78 1.0 2.0 0.00 0.00 0.00 81 1020.9
20260901235613 56 17 0.0 1.0 0.00 0.00 0.00 81 1020.9
20260901235113 57 86 0.0 1.0 0.00 0.00 0.00 81 1020.9
20260901234614 57 77 1.0 2.0 0.00 0.00 0.00 81 1020.9
20260901234107 57 157 0.0 1.0 0.00 0.00 0.00 81 1020.9
20260901233607 57 57 1.0 2.0 0.00 0.00 0.00 81 1020.9
20260901233110 57 124 0.0 1.0 0.00 0.00 0.00 80 1020.9
20260901232607 57 204 0.0 3.0 0.00 0.00 0.00 80 1020.9
20260901232107 57 78 2.0 3.0 0.00 0.00 0.00 80 1020.9
20260901231607 57 80 0.0 2.0 0.00 0.00 0.00 79 1020.9
20260901231108 57 169 1.0 3.0 0.00 0.00 0.00 79 1020.9
20260901230613 57 330 1.0 2.0 0.00 0.00 0.00 79 1020.9
20260901230110 57 21 0.0 1.0 0.00 0.00 0.00 80 1020.9
20260901225610 57 95 0.0 2.0 0.00 0.00 0.00 79 1020.9
20260901225108 57 87 0.0 2.0 0.00 0.00 0.00 79 1020.9
20260901224607 58 56 1.0 2.0 0.00 0.00 0.00 79 1020.9
20260901224116 58 95 0.0 2.0 0.00 0.00 0.00 79 1020.9
20260901223610 58 148 1.0 2.0 0.00 0.00 0.00 78 1020.9
20260901223110 58 162 1.0 3.0 0.00 0.00 0.00 78 1020.9
20260901222607 58 166 1.0 3.0 0.00 0.00 0.00 78 1020.9
20260901222107 58 71 2.0 3.0 0.00 0.00 0.00 78 1020.9
20260901221607 58 128 1.0 2.0 0.00 0.00 0.00 78 1020.9
20260901221107 58 60 0.0 2.0 0.00 0.00 0.00 77 1020.9
20260901220607 58 103 0.0 3.0 0.00 0.00 0.00 77 1020.9
20260901220113 59 94 1.0 3.0 0.00 0.00 0.00 77 1020.9
20260901215613 59 148 1.0 2.0 0.00 0.00 0.00 77 1020.9
20260901215113 59 101 0.0 2.0 0.00 0.00 0.00 76 1020.9
20260901214610 59 84 1.0 3.0 0.00 0.00 0.00 76 1020.9
20260901214108 59 93 1.0 3.0 0.00 0.00 0.00 76 1020.9
20260901213607 59 93 1.0 3.0 0.00 0.00 0.00 76 1020.9
20260901213110 59 93 1.0 3.0 0.00 0.00 0.00 76 1020.9
20260901212607 60 88 1.0 3.0 0.00 0.00 0.00 75 1020.9
20260901212107 60 173 0.0 1.0 0.00 0.00 0.00 75 1020.9
20260901211613 60 193 1.0 1.0 0.00 0.01 0.00 75 1020.9
20260901211107 60 214 0.0 1.0 0.00 0.08 0.00 74 1020.9
20260901210613 60 207 0.0 2.0 0.00 0.08 0.00 73 1020.5
20260901210107 61 281 1.0 2.0 0.00 0.08 0.00 73 1020.9
20260901205613 61 222 0.0 2.0 0.00 0.08 0.00 73 1020.5
20260901205110 61 204 1.0 1.0 0.00 0.08 0.00 72 1020.5
20260901204607 61 210 0.0 1.0 0.00 0.08 0.00 72 1020.5
20260901204110 61 199 0.0 1.0 0.00 0.08 0.00 71 1020.5
20260901203607 62 199 0.0 1.0 0.00 0.08 0.00 71 1020.5
20260901203108 62 245 0.0 1.0 0.00 0.08 0.00 71 1020.5
20260901202607 62 233 0.0 1.0 0.00 0.08 0.00 70 1020.5
20260901202107 62 230 0.0 1.0 0.00 0.08 0.00 70 1020.5
20260901201610 62 143 0.0 2.0 0.00 0.08 0.00 69 1020.5
20260901201108 63 110 1.0 2.0 0.00 0.08 0.00 69 1020.5
20260901200613 63 150 1.0 1.0 0.00 0.08 0.00 68 1020.5
20260901200107 63 210 0.0 1.0 0.00 0.08 0.00 67 1020.5
20260901195616 63 208 0.0 1.0 0.00 0.08 0.00 67 1020.5
20260901195110 63 208 0.0 1.0 0.00 0.08 0.00 66 1020.5
20260901194607 64 261 0.0 1.0 0.00 0.08 0.00 66 1020.5
20260901194110 64 251 0.0 1.0 0.00 0.08 0.00 65 1020.5
20260901193607 64 236 0.0 1.0 0.00 0.08 0.00 64 1020.5
20260901193110 64 242 0.0 1.0 0.00 0.08 0.00 64 1020.5
20260901192610 64 237 0.0 1.0 0.00 0.08 0.00 63 1020.5
20260901192107 65 253 1.0 2.0 0.00 0.08 0.00 63 1020.5
20260901191607 65 175 1.0 2.0 0.00 0.08 0.00 62 1020.5
20260901191107 65 252 0.0 1.0 0.00 0.08 0.00 62 1020.5
20260901190613 65 221 0.0 1.0 0.00 0.08 0.00 61 1020.2
20260901190110 66 250 0.0 1.0 0.00 0.08 0.00 60 1020.2
20260901185610 66 208 0.0 1.0 0.00 0.08 0.00 59 1020.2
20260901185107 67 293 0.0 1.0 0.00 0.08 0.00 58 1020.2
20260901184613 67 333 1.0 2.0 0.00 0.08 0.00 57 1020.2
20260901184110 67 293 0.0 2.0 0.00 0.08 0.00 56 1020.2
20260901183616 68 208 0.0 2.0 0.00 0.08 0.00 55 1020.2
20260901183107 68 258 0.0 1.0 0.00 0.08 0.00 54 1019.8
20260901182610 69 239 0.0 2.0 0.00 0.08 0.00 53 1019.8
20260901182113 69 175 0.0 1.0 0.00 0.08 0.00 52 1019.8
20260901181613 69 214 0.0 1.0 0.00 0.08 0.00 51 1019.8
20260901181110 69 219 0.0 3.0 0.00 0.08 0.00 51 1019.8
20260901180607 70 179 1.0 3.0 0.00 0.08 0.00 50 1019.8
20260901180107 70 165 0.0 1.0 0.00 0.08 0.00 50 1019.5
20260901175610 70 246 0.0 2.0 0.00 0.08 0.00 50 1019.5
20260901175110 71 236 0.0 2.0 0.00 0.08 0.00 49 1019.5
20260901174610 71 271 0.0 1.0 0.00 0.08 0.00 48 1019.5
20260901174107 72 251 0.0 2.0 0.00 0.08 0.00 47 1019.5
20260901173608 72 254 0.0 3.0 0.00 0.08 0.00 47 1019.5
20260901173107 72 230 1.0 4.0 0.00 0.08 0.00 47 1019.5
20260901172607 72 223 1.0 4.0 0.00 0.08 0.00 45 1019.5
20260901172110 72 235 1.0 4.0 0.00 0.08 0.00 45 1019.5
20260901171607 73 221 1.0 5.0 0.00 0.08 0.00 45 1019.5
20260901171107 73 265 1.0 3.0 0.00 0.08 0.00 44 1019.5
20260901170614 73 241 1.0 5.0 0.00 0.08 0.00 44 1019.5
20260901170107 73 203 0.0 3.0 0.00 0.08 0.00 45 1019.5
20260901165616 73 232 1.0 4.0 0.00 0.08 0.00 44 1019.5
20260901165110 73 199 1.0 5.0 0.00 0.08 0.00 43 1019.5
20260901164607 74 158 2.0 4.0 0.00 0.08 0.00 42 1019.8
20260901164113 74 232 2.0 4.0 0.00 0.08 0.00 43 1019.8
20260901163610 74 247 2.0 5.0 0.00 0.08 0.00 42 1019.8
20260901163110 74 182 2.0 6.0 0.00 0.08 0.00 41 1019.8
20260901162610 74 220 1.0 4.0 0.00 0.08 0.00 41 1019.8
20260901162110 74 219 1.0 7.0 0.00 0.08 0.00 40 1019.8
20260901161607 75 238 2.0 7.0 0.00 0.08 0.00 39 1019.8
20260901161116 75 224 0.0 6.0 0.00 0.08 0.00 40 1019.8
20260901160610 75 194 1.0 7.0 0.00 0.08 0.00 39 1019.8
20260901160111 76 176 2.0 6.0 0.00 0.08 0.00 38 1019.8
20260901155610 76 274 1.0 7.0 0.00 0.08 0.00 38 1019.8
20260901155108 76 220 1.0 8.0 0.00 0.08 0.00 39 1019.8
20260901154610 76 214 2.0 11.0 0.00 0.08 0.00 39 1019.8
20260901154108 76 248 3.0 7.0 0.00 0.08 0.00 37 1019.8
20260901153613 76 252 1.0 5.0 0.00 0.08 0.00 39 1019.8
20260901153111 76 263 1.0 6.0 0.00 0.08 0.00 39 1019.8
20260901152608 77 223 1.0 7.0 0.00 0.08 0.00 38 1019.8
20260901152113 77 226 2.0 5.0 0.00 0.08 0.00 38 1019.8
20260901151610 77 188 2.0 4.0 0.00 0.08 0.00 38 1019.8
20260901151107 76 246 0.0 7.0 0.00 0.08 0.00 41 1019.8
20260901150616 75 265 3.0 8.0 0.00 0.08 0.00 39 1019.8
20260901150110 76 254 2.0 8.0 0.00 0.08 0.00 38 1019.8
20260901145607 77 198 1.0 8.0 0.00 0.08 0.00 38 1019.8
20260901145110 78 216 2.0 7.0 0.00 0.08 0.00 37 1019.8
20260901144610 77 216 1.0 7.0 0.00 0.08 0.00 38 1019.8
20260901144111 75 211 2.0 9.0 0.00 0.08 0.00 39 1019.8
20260901143610 75 284 2.0 10.0 0.00 0.08 0.00 39 1019.8
20260901143108 76 227 4.0 10.0 0.00 0.08 0.00 35 1019.8
20260901142607 78 262 2.0 7.0 0.00 0.08 0.00 35 1020.2
20260901142108 78 170 1.0 5.0 0.00 0.08 0.00 38 1020.2
20260901141608 77 252 2.0 6.0 0.00 0.08 0.00 40 1020.2
20260901141110 75 274 3.0 7.0 0.00 0.08 0.00 41 1020.2
20260901140607 75 223 2.0 7.0 0.00 0.08 0.00 41 1020.2
20260901140114 75 315 3.0 7.0 0.00 0.08 0.00 40 1020.2
20260901135613 76 302 3.0 7.0 0.00 0.08 0.00 40 1020.2
20260901135113 76 293 2.0 8.0 0.00 0.08 0.00 40 1020.2
20260901134610 75 263 2.0 10.0 0.00 0.08 0.00 39 1020.2
20260901134107 75 270 3.0 9.0 0.00 0.08 0.00 39 1020.2
20260901133616 75 234 3.0 8.0 0.00 0.08 0.00 40 1020.2
20260901133108 75 249 4.0 7.0 0.00 0.08 0.00 41 1020.2
20260901132617 75 265 2.0 9.0 0.00 0.08 0.00 40 1020.5
20260901132110 75 223 2.0 6.0 0.00 0.08 0.00 41 1020.5
20260901131607 74 222 3.0 6.0 0.00 0.08 0.00 42 1020.5
20260901131107 75 235 2.0 7.0 0.00 0.08 0.00 41 1020.5
20260901130607 76 233 1.0 7.0 0.00 0.08 0.00 40 1020.5
20260901130113 74 226 1.0 9.0 0.00 0.08 0.00 44 1020.5
20260901125607 73 247 3.0 9.0 0.00 0.08 0.00 44 1020.5
20260901125107 73 271 2.0 8.0 0.00 0.08 0.00 44 1020.5
20260901124607 74 224 3.0 8.0 0.00 0.08 0.00 43 1020.5
20260901124108 73 310 3.0 8.0 0.00 0.08 0.00 45 1020.5
20260901123607 73 278 3.0 9.0 0.00 0.08 0.00 45 1020.5
20260901123113 74 302 4.0 7.0 0.00 0.08 0.00 44 1020.9
20260901122607 75 212 1.0 9.0 0.00 0.08 0.00 42 1020.5
20260901122107 74 240 2.0 12.0 0.00 0.08 0.00 42 1020.5
20260901121610 75 238 3.0 8.0 0.00 0.08 0.00 39 1020.5
20260901121111 75 223 2.0 9.0 0.00 0.08 0.00 41 1020.5
20260901120608 74 256 3.0 8.0 0.00 0.08 0.00 43 1020.5
20260901120111 74 267 3.0 8.0 0.00 0.08 0.00 44 1020.5
20260901115611 74 228 2.0 6.0 0.00 0.08 0.00 45 1020.5
20260901115110 73 215 2.0 9.0 0.00 0.08 0.00 47 1020.5
20260901114611 71 279 3.0 8.0 0.00 0.08 0.00 48 1020.5
20260901114107 71 256 4.0 8.0 0.00 0.08 0.00 47 1020.5
20260901113610 71 299 3.0 6.0 0.00 0.08 0.00 48 1020.9
20260901113110 71 314 2.0 9.0 0.00 0.08 0.00 47 1020.9
20260901112607 73 281 2.0 7.0 0.00 0.08 0.00 46 1020.5
20260901112107 73 221 2.0 10.0 0.00 0.08 0.00 44 1020.5
20260901111613 72 229 1.0 11.0 0.00 0.08 0.00 46 1020.5
20260901111110 71 271 2.0 11.0 0.00 0.08 0.00 48 1020.5
20260901110610 72 235 5.0 10.0 0.00 0.08 0.00 47 1020.9
20260901110110 71 269 3.0 10.0 0.00 0.08 0.00 49 1020.9
20260901105607 70 299 2.0 10.0 0.00 0.08 0.00 48 1020.5
20260901105110 72 273 4.0 9.0 0.00 0.08 0.00 47 1020.9
20260901104607 72 246 4.0 9.0 0.00 0.08 0.00 47 1020.5
20260901104110 72 270 2.0 8.0 0.00 0.08 0.00 47 1020.5
20260901103607 73 257 3.0 7.0 0.00 0.08 0.00 46 1020.5
20260901103113 72 229 3.0 10.0 0.00 0.08 0.00 47 1020.5
20260901102607 71 280 1.0 6.0 0.00 0.08 0.00 50 1020.5
20260901102113 71 268 1.0 9.0 0.00 0.08 0.00 51 1020.5
20260901101607 70 287 2.0 10.0 0.00 0.08 0.00 50 1020.5
20260901101113 70 227 2.0 7.0 0.00 0.08 0.00 50 1020.9
20260901100613 71 295 2.0 6.0 0.00 0.08 0.00 51 1020.9
20260901100107 70 264 2.0 7.0 0.00 0.08 0.00 51 1020.9
20260901095613 70 213 2.0 7.0 0.00 0.08 0.00 53 1020.9
20260901095107 69 218 2.0 10.0 0.00 0.08 0.00 52 1020.9
20260901094607 69 235 3.0 11.0 0.00 0.08 0.00 51 1020.9
20260901094107 69 270 4.0 11.0 0.00 0.08 0.00 52 1020.9
20260901093610 69 240 3.0 10.0 0.00 0.08 0.00 53 1020.9
20260901093110 69 243 3.0 9.0 0.00 0.08 0.00 52 1020.9
20260901092607 69 235 3.0 13.0 0.00 0.08 0.00 53 1020.9
20260901092107 69 249 3.0 7.0 0.00 0.08 0.00 54 1020.9
20260901091613 69 248 2.0 7.0 0.00 0.08 0.00 56 1020.9
20260901091107 68 249 3.0 11.0 0.00 0.08 0.00 55 1020.9
20260901090613 68 274 4.0 11.0 0.00 0.08 0.00 56 1020.9
20260901090116 68 232 2.0 9.0 0.00 0.08 0.00 57 1020.9
20260901085607 67 225 2.0 11.0 0.00 0.08 0.00 57 1020.9
20260901085107 68 238 3.0 6.0 0.00 0.08 0.00 57 1020.9
20260901084616 67 255 2.0 10.0 0.00 0.08 0.00 59 1020.9
20260901084107 67 253 4.0 11.0 0.00 0.08 0.00 60 1020.9
20260901083607 67 279 2.0 9.0 0.00 0.08 0.00 61 1020.9
20260901083113 67 242 3.0 7.0 0.00 0.08 0.00 60 1020.9
20260901082607 66 212 1.0 9.0 0.00 0.08 0.00 61 1020.9
20260901082107 67 232 3.0 9.0 0.00 0.08 0.00 59 1020.9
20260901081607 67 249 1.0 7.0 0.00 0.08 0.00 59 1020.9
20260901081113 67 277 1.0 8.0 0.00 0.08 0.00 60 1020.5
20260901080607 67 234 3.0 8.0 0.00 0.08 0.00 60 1020.5
20260901080111 67 243 3.0 7.0 0.00 0.08 0.00 60 1020.5
20260901075608 67 258 2.0 5.0 0.00 0.08 0.00 63 1020.5
20260901075107 66 251 2.0 6.0 0.00 0.08 0.00 64 1020.5
20260901074610 66 248 2.0 6.0 0.00 0.08 0.00 64 1020.5
20260901074108 66 235 3.0 6.0 0.00 0.08 0.00 65 1020.5
20260901073611 66 266 1.0 4.0 0.00 0.08 0.00 66 1020.5
20260901073107 65 222 1.0 5.0 0.00 0.08 0.00 69 1020.2
20260901072608 64 276 2.0 6.0 0.00 0.08 0.00 68 1020.2
20260901072107 65 244 2.0 6.0 0.00 0.08 0.00 68 1020.2
20260901071610 65 304 1.0 5.0 0.00 0.08 0.00 68 1020.2
20260901071107 65 276 2.0 5.0 0.00 0.08 0.00 69 1020.5
20260901070607 64 244 1.0 5.0 0.00 0.08 0.00 71 1020.5
20260901070107 64 257 2.0 5.0 0.00 0.08 0.00 71 1020.2
20260901065611 64 242 1.0 5.0 0.00 0.08 0.00 73 1020.2
20260901065107 63 244 1.0 4.0 0.00 0.08 0.00 74 1020.5
20260901064613 62 226 0.0 5.0 0.00 0.08 0.00 77 1020.2
20260901064107 61 296 1.0 5.0 0.00 0.08 0.00 78 1020.2
20260901063607 61 234 1.0 5.0 0.00 0.08 0.00 78 1020.2
20260901063110 61 305 1.0 6.0 0.00 0.08 0.00 78 1020.2
20260901062610 61 251 0.0 3.0 0.00 0.08 0.00 79 1020.2
20260901062107 61 300 1.0 3.0 0.00 0.08 0.00 79 1020.2
20260901061607 61 239 1.0 3.0 0.00 0.08 0.00 80 1020.2
20260901061110 61 290 0.0 2.0 0.00 0.08 0.00 81 1020.2
20260901060607 60 247 0.0 2.0 0.00 0.08 0.00 81 1020.2
20260901060107 60 227 1.0 3.0 0.00 0.08 0.00 81 1020.2
20260901055607 60 233 0.0 2.0 0.00 0.08 0.00 82 1020.2
20260901055107 60 220 1.0 2.0 0.00 0.08 0.00 83 1020.2
20260901054610 60 346 0.0 1.0 0.00 0.08 0.00 84 1020.2
20260901054107 59 175 0.0 1.0 0.00 0.08 0.00 85 1020.2
20260901053610 59 171 0.0 3.0 0.00 0.08 0.00 85 1020.2
20260901053107 59 169 0.0 2.0 0.00 0.08 0.00 85 1020.2
20260901052610 59 175 0.0 3.0 0.00 0.08 0.00 85 1020.2
20260901052107 59 190 0.0 2.0 0.00 0.08 0.00 85 1019.8
20260901051610 58 231 0.0 1.0 0.00 0.08 0.00 86 1020.2
20260901051107 58 321 0.0 3.0 0.00 0.08 0.00 86 1020.2
20260901050607 58 331 1.0 2.0 0.00 0.08 0.00 86 1020.2
20260901050107 58 41 1.0 3.0 0.00 0.08 0.00 86 1020.2
20260901045607 58 309 1.0 3.0 0.00 0.08 0.00 86 1019.8
20260901045110 58 308 1.0 3.0 0.00 0.08 0.00 87 1019.8
20260901044616 58 278 2.0 4.0 0.00 0.08 0.00 87 1019.8
20260901044107 58 245 2.0 4.0 0.00 0.08 0.00 87 1019.8
20260901043611 58 277 1.0 3.0 0.00 0.08 0.00 87 1019.8
20260901043113 58 227 0.0 4.0 0.00 0.08 0.00 87 1019.8
20260901042607 58 181 1.0 4.0 0.00 0.08 0.00 87 1019.8
20260901042111 58 209 0.0 2.0 0.00 0.09 0.00 87 1019.8
20260901041607 58 253 0.0 2.0 0.00 0.09 0.00 87 1019.8
20260901041110 58 243 0.0 2.0 0.00 0.09 0.00 87 1019.8
20260901040610 58 248 0.0 2.0 0.00 0.09 0.00 87 1019.5
20260901040107 58 298 0.0 3.0 0.00 0.09 0.00 87 1019.5
20260901035610 58 288 1.0 3.0 0.00 0.09 0.00 87 1019.5
20260901035107 58 280 1.0 4.0 0.00 0.09 0.00 87 1019.5
20260901034613 58 310 1.0 2.0 0.00 0.11 0.00 87 1019.5
20260901034113 58 216 0.0 3.0 0.00 0.14 0.00 87 1019.5
20260901033616 58 259 0.0 3.0 0.00 0.16 0.00 87 1019.5
20260901033110 58 254 1.0 3.0 0.00 0.16 0.00 87 1019.5
20260901032608 58 252 0.0 2.0 0.00 0.23 0.00 87 1019.5
20260901032110 58 289 1.0 3.0 0.00 0.35 0.00 87 1019.5
20260901031613 58 214 1.0 4.0 0.00 0.40 0.00 87 1019.2
20260901031107 58 247 1.0 2.0 0.00 0.42 0.00 87 1019.2
20260901030607 58 269 0.0 3.0 0.00 0.43 0.00 87 1019.2